DELTA 1 DEB

Satellite information

Favourite Embed

Satellite Type and Status

DEBRISIN ORBIT

Key statistics

Satellite DELTA 1 DEB at a glance.

Uptime

17353

Days in orbit

Revolutions

≈ 14.0

Per day

Orbit

SSO

Sun Synchronous Orbit

Inclination

98.8

Latest

Satellite identification and parameters

Extended collection of information and parameters for DELTA 1 DEB.

Object identification

Identified? True

Debris? True

Object name: DELTA 1 DEB

International designator: 1978-026FE

Object number (NORAD): 13567

Object ID (CCSDS): 13567

Country: UNITED STATES OF AMERICA (US)

Current information (Y/N): Y

RCS size: SMALL

Orbital parameters

Period: 102.522 minutes

Inclination: 98.8132 deg

SMA: 7256.133 km

Apoapsis: 1010.813 km

Periapsis: 745.182 km

RAAN: 38.7537 deg

Eccentricy: 0.01830392

Argument of periapsis: 139.9121 deg

Mean anomaly: 11.0257 deg

Mean motion: 14.04574998 rev/day

Mean motion (dot): 0.00006894 rev/day2

B* drag term: 0.0037352557 1/REarth

Two-line elements (TLE)

Creation date: Sept. 6, 2025, 2:09 a.m.

Reference frame: TEME

Reference center: EARTH

Epoch: Sept. 5, 2025, 9:50 p.m. UTC

TLE line 0: 0 DELTA 1 DEB

TLE line 1: 1 13567U 78026FE 25248.91032007 .00006894 00000-0 37353-2 0 9998

TLE line 2: 2 13567 98.8132 38.7537 0183039 139.9121 11.0257 14.04574998171149

Live tracking on map

Real-time ground track for satellite DELTA 1 DEB.

In-orbit conjunctions

A list of the most updated potential collisions computed for object DELTA 1 DEB.

Target Orbit TCA Probability of collision Miss distance Type
THOR ABLESTAR DEB LEO 2024-11-02 02:17:03 0.0001116162 74.0 (m) DEBRIS
SL-8 R/B LEO 2024-09-26 12:47:14 0.0004318694 130.0 (m) ROCKET BODY
COSMOS 1275 DEB LEO 2024-05-31 11:38:55 0.0001429976 113.0 (m) DEBRIS

Associated space launch

Earth observation satellite

DELTA 1 DEB was lifted into orbit during the mission ‘Delta 2910 | Landsat 3’, on board a Delta 2910 space rocket.

The launch took place on March 5, 1978, 5:54 p.m. from Space Launch Complex 2W.

For more information about the launch, click the button.

Launch to space Delta 2910 | Landsat 3
Delta 2910 | Landsat 3

Agency: N/A

Status: Launch Successful

Launch date: March 5, 1978, 5:54 p.m. UTC

Rocket: Delta 2910

Launch pad: Space Launch Complex 2W

Location: Vandenberg SFB, CA, USA

...

Latest news about this satellite

There are no fresh news available about this satellite. Check back as we update our databases every day.


Newsletter sign-up

Weekly statistics, charts and insights to help you stay on top of the space industry.